sat.trackr.live / text

‹ back to catalog

STARLINK-36801

NORAD 67888 · 2026-035K

PAYLOAD ACTIVE UNKNOWN

§ Identity

Operator
Country
US
Launch date
2026-02-21
Launch site
AFWTR
Launch vehicle
Mass (kg)
RCS (m²)

Purposes: comms

External: N2YO · Heavens-Above · Gunter

§ Orbital elements

Epoch: 2026-09-19T01:36:25.104672Z

Period
93.91 min
Inclination
97.2826°
Eccentricity
0.0002152
Mean motion
15.33458251 rev/d
Perigee alt
464.0 km
Apogee alt
467.0 km
Semi-major
6,843.6 km
B*
4.9150e-4
RAAN
193.9408°
Arg perigee
97.6887°
Mean anomaly
262.4600°
Rev number
3,362

§ Raw data

STARLINK-368011 67888U 26035K   26262.06695723  .00015833  00000+0  49150-3 0  99902 67888  97.2826 193.9408 0002152  97.6887 262.4600 15.33458251 33623

JSON: /api/v1/satellites/67888 · /tle

For live sub-satellite position, see the globe view (requires WebGL).

§ Visibility from observer

Set your observer location to see the next 7 days of passes ≥ 10°. The values pass through the URL so the page stays shareable.

No JS? Fill the form by hand. The geolocation button needs JavaScript.